Regional Weather Roundup
Issued by NWS

Home | Current Version | Previous Version | Text Only | Print | Product List | Glossary Off
Versions: 1 2 3 4 5 6 7 8 9 10 11 12 13 14 15 16 17 18 19 20 21 22 23 24 25 26 27 28 29 30 31 32 33 34 35 36 37 38 39 40 41 42 43 44 45 46 47 48 49 50

000
ASUS43 KOAX 181102
RWRNE

WEATHER ROUNDUP FOR NEBRASKA
NATIONAL WEATHER SERVICE OMAHA NE
500 AM CST THU DEC 18 2014

NOTES: SATELLITE DATA IS BEING USED TO AUGMENT CLOUD COVER ABOVE
       12000 FEET.
       "FAIR" INDICATES FEW OR NO CLOUDS BELOW 12,000 FEET WITH NO
       SIGNIFICANT WEATHER AND/OR OBSTRUCTIONS TO VISIBILITY.

  * THESE STATIONS DO NOT REPORT WEATHER SUCH AS RAIN...SNOW OR FOG.

NEZ001>004-019>022-054>056-181200-
NEBRASKA PANHANDLE

CITY           SKY/WX    TMP DP  RH WIND       PRES   REMARKS
SCOTTSBLUFF    FOG       10   8  92 W7        30.02S VSB 1   WCI  -1
ALLIANCE       FOG        8   4  83 W5        29.99F VSB 1/4 WCI   0
CHADRON        CLOUDY     8   6  92 SW5       30.02F FOG     WCI   0
SIDNEY         PTCLDY     7   3  84 W6        29.99F WCI  -3
$$

NEZ057>060-069>072-079>082-181200-
SOUTHWEST NEBRASKA

CITY           SKY/WX    TMP DP  RH WIND       PRES   REMARKS
NORTH PLATTE   CLOUDY    24  23  96 SW6       30.08S WCI  17
IMPERIAL       CLOUDY    26  22  84 W7        30.05F WCI  18
MCCOOK         CLOUDY    22  20  92 E3        30.09S FOG
$$

NEZ005>010-023>029-035>040-094-181200-
NORTH CENTRAL NEBRASKA

CITY           SKY/WX    TMP DP  RH WIND       PRES   REMARKS
VALENTINE      CLOUDY    25  21  85 SW9       30.06F WCI  15
AINSWORTH      CLOUDY    23  22  97 SW3       30.08S FOG
BROKEN BOW     CLOUDY    24  23  96 S5        30.09S WCI  18
ORD            CLOUDY    23  20  88 SE9       30.12F WCI  13
$$

NEZ041-046>049-061>064-073>077-083>087-181200-
SOUTH CENTRAL NEBRASKA

CITY           SKY/WX    TMP DP  RH WIND       PRES   REMARKS
GRAND ISLAND   CLOUDY    23  21  92 E6        30.16F WCI  16
AURORA         LGT SNOW  24  23  95 E3        30.16F
HASTINGS       CLOUDY    24  21  88 E5        30.14F WCI  18
KEARNEY *      CLOUDY    25  19  80 E3        30.13F
$$

NEZ011>018-030>034-042>045-181200-
NORTHEAST NEBRASKA

CITY           SKY/WX    TMP DP  RH WIND       PRES   REMARKS
NORFOLK        LGT SNOW  24  21  88 SE6       30.18S FOG     WCI  17
BLAIR          CLOUDY    27  22  80 E6        30.21S WCI  20
COLUMBUS *     CLOUDY    25  18  74 SE5       30.20F WCI  19
TEKAMAH        CLOUDY    26  20  77 SE6       30.23F WCI  19
$$

NEZ050>053-065>068-078-088>093-181200-
SOUTHEAST NEBRASKA

CITY           SKY/WX    TMP DP  RH WIND       PRES   REMARKS
LINCOLN        LGT SNOW  26  23  88 E5        30.22F FOG     WCI  20
OMAHA EPPLEY   CLOUDY    27  20  75 SE6       30.24F WCI  20
FALLS CITY     LGT SNOW  27  25  92 E5        30.21F FOG     WCI  22
NEBRASKA CITY  LGT SNOW  27  27 100 NE3       30.20F
$$

NEZ044-045-051>053-067-181200-
OMAHA AREA

CITY           SKY/WX    TMP DP  RH WIND       PRES   REMARKS
OMAHA EPPLEY   CLOUDY    27  20  75 SE6       30.24F WCI  20
BLAIR          CLOUDY    27  22  80 E6        30.21S WCI  20
OFFUTT AFB     PTCLDY    28  21  75 NE5       30.22F WCI  22
WAHOO          CLOUDY    28  21  76 E3        30.21F
$$



USA.gov is the U.S. government's official web portal to all federal, state and local government web resources and services.